JES3840 SABE-SCEL

Flight info

Callsign JES3840
Flight time N/A
Altitude 32000
Route PAL9 NEPIS DCT NIN UL405 TOSOR UT687 UMKAL
Aircraft A320/M-SDE3FGHIRWY/LB1

Departure

Time 2026-05-05 00:39
Airport Aeroparque Jorge Newbery (SABE)

Arrival

Time N/A
Airport Comodoro Arturo Merino Benítez International Airport (SCEL)
Time Latitude Longitude Altitude Speed Heading
2026-05-05 00:19 -34.55757 -58.41323 29 ft 0 kts 35°
2026-05-05 00:26 -34.55758 -58.41323 25 ft 0 kts 35°
2026-05-05 00:32 -34.55758 -58.41324 26 ft 2 kts 35°
2026-05-05 00:33 -34.55773 -58.41336 29 ft 1 kts 21°
2026-05-05 00:33 -34.55775 -58.41337 26 ft 2 kts 24°
2026-05-05 00:33 -34.55789 -58.41343 26 ft 3 kts 359°
2026-05-05 00:33 -34.55802 -58.41341 26 ft 2 kts 319°
2026-05-05 00:34 -34.55808 -58.41336 26 ft 2 kts 311°
2026-05-05 00:34 -34.55817 -58.41321 26 ft 2 kts 301°
2026-05-05 00:34 -34.55819 -58.41316 31 ft 0 kts 300°
2026-05-05 00:36 -34.55784 -58.41381 26 ft 14 kts 304°
2026-05-05 00:36 -34.55733 -58.41478 28 ft 15 kts 298°
2026-05-05 00:36 -34.55760 -58.41579 25 ft 16 kts 215°
2026-05-05 00:37 -34.55764 -58.41686 25 ft 15 kts 296°
2026-05-05 00:37 -34.55710 -58.41803 27 ft 17 kts 304°
2026-05-05 00:37 -34.55642 -58.41925 28 ft 18 kts 304°
2026-05-05 00:37 -34.55566 -58.42059 28 ft 20 kts 306°
2026-05-05 00:38 -34.55479 -58.42198 27 ft 21 kts 307°
2026-05-05 00:38 -34.55394 -58.42335 30 ft 14 kts 307°
2026-05-05 00:38 -34.55359 -58.42453 25 ft 16 kts 276°
2026-05-05 00:38 -34.55429 -58.42466 29 ft 16 kts 125°
2026-05-05 00:39 -34.55517 -58.42310 28 ft 43 kts 124°
2026-05-05 00:39 -34.55820 -58.41763 24 ft 109 kts 124°
2026-05-05 00:39 -34.56337 -58.40833 44 ft 156 kts 122°
2026-05-05 00:39 -34.56942 -58.39731 699 ft 157 kts 121°
2026-05-05 00:40 -34.57518 -58.38583 1174 ft 161 kts 112°
2026-05-05 00:40 -34.57674 -58.37181 1358 ft 181 kts 74°
2026-05-05 00:40 -34.57080 -58.35773 1590 ft 198 kts 46°
2026-05-05 00:40 -34.56108 -58.34468 1789 ft 224 kts 46°
2026-05-05 00:41 -34.55000 -58.32998 2152 ft 246 kts 37°
2026-05-05 00:41 -34.53457 -58.32077 2779 ft 252 kts
2026-05-05 00:41 -34.51712 -58.32197 3522 ft 255 kts 339°
2026-05-05 00:41 -34.50246 -58.33364 4327 ft 256 kts 309°
2026-05-05 00:42 -34.49469 -58.35284 5147 ft 259 kts 280°
2026-05-05 00:42 -34.49537 -58.37472 5921 ft 265 kts 255°
2026-05-05 00:42 -34.50334 -58.39508 6669 ft 271 kts 240°
2026-05-05 00:42 -34.51306 -58.41465 7486 ft 271 kts 240°
2026-05-05 00:43 -34.52282 -58.43416 8346 ft 270 kts 239°
2026-05-05 00:43 -34.53255 -58.45364 9199 ft 269 kts 239°
2026-05-05 00:43 -34.54218 -58.47304 10024 ft 268 kts 239°
2026-05-05 00:43 -34.55203 -58.49292 10385 ft 285 kts 240°
2026-05-05 00:44 -34.56261 -58.51438 10607 ft 304 kts 240°
2026-05-05 00:44 -34.57359 -58.53661 11130 ft 309 kts 240°
2026-05-05 00:44 -34.58470 -58.55917 11794 ft 312 kts 240°
2026-05-05 00:44 -34.59586 -58.58183 12477 ft 313 kts 240°
2026-05-05 00:45 -34.60705 -58.60457 13173 ft 315 kts 240°
2026-05-05 00:45 -34.61705 -58.62826 13820 ft 317 kts 252°
2026-05-05 00:45 -34.61982 -58.65476 14364 ft 322 kts 270°
2026-05-05 00:45 -34.61861 -58.68197 14934 ft 324 kts 271°
2026-05-05 00:46 -34.61722 -58.70936 15508 ft 326 kts 271°
2026-05-05 00:46 -34.61580 -58.73650 16101 ft 328 kts 271°
2026-05-05 00:46 -34.61436 -58.76425 16669 ft 330 kts 271°
2026-05-05 00:46 -34.61294 -58.79206 17229 ft 332 kts 272°
2026-05-05 00:47 -34.61155 -58.82015 17795 ft 334 kts 272°
2026-05-05 00:47 -34.61016 -58.84843 18337 ft 337 kts 272°
2026-05-05 00:47 -34.60877 -58.87693 18831 ft 339 kts 272°
2026-05-05 00:47 -34.60738 -58.90549 19339 ft 341 kts 272°
2026-05-05 00:48 -34.60599 -58.93432 19855 ft 342 kts 272°
2026-05-05 00:48 -34.60458 -58.96321 20365 ft 344 kts 272°
2026-05-05 00:48 -34.60315 -58.99225 20853 ft 346 kts 272°
2026-05-05 00:48 -34.60169 -59.02145 21327 ft 347 kts 272°
2026-05-05 00:49 -34.60020 -59.05073 21810 ft 349 kts 272°
2026-05-05 00:49 -34.59870 -59.08026 22279 ft 351 kts 272°
2026-05-05 00:49 -34.59721 -59.10985 22746 ft 352 kts 272°
2026-05-05 00:49 -34.59569 -59.13965 23201 ft 354 kts 272°
2026-05-05 00:50 -34.59417 -59.16917 23611 ft 356 kts 272°
2026-05-05 00:50 -34.59261 -59.19927 23980 ft 358 kts 272°